Regional Weather Roundup
Issued by NWS

Home | Current Version | Previous Version | Text Only | Print | Product List | Glossary On
Versions: 1 2 3 4 5 6 7 8 9 10 11 12 13 14 15 16 17 18 19 20 21 22 23 24 25 26 27 28 29 30 31 32 33 34 35 36 37 38 39 40 41 42 43 44 45 46 47 48 49 50
000
ASUS43 KDTX 250001
RWRMI
MICHIGAN HOURLY REGIONAL WEATHER ROUNDUP
NATIONAL WEATHER SERVICE DETROIT/PONTIAC MI
800 PM EDT SUN JUL 24 2016

NOTE: "FAIR" INDICATES FEW OR NO CLOUDS BELOW 12,000 FEET WITH NO
SIGNIFICANT WEATHER AND/OR OBSTRUCTION TO VISIBILITY.

MIZ047>049-052>055-059>063-066>070-074>076-081>083-250100-
SOUTHEAST LOWER MICHIGAN

CITY           SKY/WX    TMP DP  RH WIND       PRES   REMARKS
ADRIAN         CLOUDY    85  75  72 SW8       29.92S HX  93
6HR MIN TEMP:  71; 6HR MAX TEMP:  86; 6HR PCP:  0.02;

ALMA           CLOUDY    84  78  83 SW7       29.85F HX  96
ANN ARBOR      CLOUDY    83  75  77 S7        29.91F HAZE    HX  90
BAD AXE        CLOUDY    81  70  70 S10       29.88S
CARO           MOCLDY    81  73  77 S5        29.87S
DETROIT CITY   PTCLDY    83  72  69 S8        29.92R
6HR MIN TEMP:  76; 6HR MAX TEMP:  85;

DETROIT        CLOUDY    83  72  69 S9        29.92F
6HR MIN TEMP:  75; 6HR MAX TEMP:  87; 6HR PCP: TRACE;

FLINT          MOCLDY    85  74  69 S7        29.89S HX  92
6HR MIN TEMP:  76; 6HR MAX TEMP:  88;

GROSSE ILE     PTCLDY    78  71  80 S5        29.92S
6HR MIN TEMP:  75; 6HR MAX TEMP:  81;

HOWELL         PTSUNNY   83  75  76 S6        29.91S HX  91

CITY           SKY/WX    TMP DP  RH WIND       PRES   REMARKS
JACKSON        MOSUNNY   83  77  82 S6        29.90F HX  92
6HR MIN TEMP:  72; 6HR MAX TEMP:  85; 6HR PCP:  0.03;

LAMBERTVILLE   CLOUDY    84  74  72 CALM      29.93S HX  92
6HR MIN TEMP:  73; 6HR MAX TEMP:  85;

LANSING        MOSUNNY   84  75  74 S7        29.88F HX  92
6HR MIN TEMP:  73; 6HR MAX TEMP:  87;

LAPEER         CLOUDY    81  73  76 S7        29.90F
6HR MIN TEMP:  75; 6HR MAX TEMP:  84;

MASON          PTSUNNY   84  76  76 CALM      29.90S HX  92
MONROE         PTCLDY    81  74  81 SE5       29.91F
6HR MIN TEMP:  73; 6HR MAX TEMP:  83;

MT. CLEMENS    CLOUDY    79  72  79 SE6       29.90S
6HR MIN TEMP:  78; 6HR MAX TEMP:  83;

PONTIAC        CLOUDY    83  72  69 S8        29.91F
6HR MIN TEMP:  73; 6HR MAX TEMP:  84; 6HR PCP: TRACE;

PORT HOPE        N/A     82  70  66 CALM      29.85S
6HR MIN TEMP:  79; 6HR MAX TEMP:  84;

PORT HURON     CLOUDY    77  72  83 S6        29.91S
TRI CITIES     CLOUDY    83  76  79 S9        29.85F HX  91
6HR MIN TEMP:  76; 6HR MAX TEMP:  84;

MIDLAND        PTSUNNY   82  74  76 S6        29.83F
6HR MIN TEMP:  75; 6HR MAX TEMP:  83;

TROY           PTCLDY    85  71  62 SW8G16    29.93S HX  90
SAGINAW HB     CLOUDY    82  73  74 S6        29.86S
$$
MIZ043>046-050>051-056>058-064>065-071>073-077>080-250100-
SOUTHWEST LOWER MICHIGAN

CITY           SKY/WX    TMP DP  RH WIND       PRES   REMARKS
BATTLE CREEK   CLOUDY    83  77  82 S10       29.89F HX  92
6HR MIN TEMP:  69; 6HR MAX TEMP:  85;

BENTON HARBOR  CLOUDY    87  77  72 S9G20     29.85F HX  99
6HR MIN TEMP:  80; 6HR MAX TEMP:  91;

BIG RAPIDS     CLOUDY    84  79  86 SW8G21    29.83F HX  95
6HR MIN TEMP:  74; 6HR MAX TEMP:  85;

COLDWATER      SUNNY     85  76  76 SW5       29.90F HX  94
6HR MIN TEMP:  74; 6HR MAX TEMP:  87;

FREMONT        FAIR      84  75  74 SW12G21   29.82F HX  92
HOLLAND        CLOUDY    86  76  71 SW12      29.85F HX  96
6HR MIN TEMP:  78; 6HR MAX TEMP:  91;

GRAND RAPIDS   CLOUDY    85  76  74 S8        29.85F HX  94
6HR MIN TEMP:  79; 6HR MAX TEMP:  88;

IONIA          FAIR      84  74  73 S7        29.85F HX  91
6HR MIN TEMP:  75; 6HR MAX TEMP:  87;

KALAMAZOO      MOSUNNY   87  75  67 SW9       29.87F HX  96
6HR MIN TEMP:  77; 6HR MAX TEMP:  89;

LUDINGTON      MOSUNNY   78  75  90 SW10G17   29.79F
6HR MIN TEMP:  78; 6HR MAX TEMP:  83;

MARSHALL       MOSUNNY   85  78  78 S6        29.89S HX  96
6HR MIN TEMP:  71; 6HR MAX TEMP:  87; 6HR PCP:  0.01;

MOUNT PLEASANT CLOUDY    85  76  73 S5        29.83S HX  94
6HR MIN TEMP:  74; 6HR MAX TEMP:  87;

MUSKEGON       CLOUDY    83  76  79 S14       29.82F HX  91
6HR MIN TEMP:  80; 6HR MAX TEMP:  88; 6HR PCP: TRACE;

$$
MIZ016>042-250100-
NORTHERN LOWER MICHIGAN

CITY           SKY/WX    TMP DP  RH WIND       PRES   REMARKS
ALPENA         CLOUDY    81  70  69 S6        29.82S
6HR MIN TEMP:  81; 6HR MAX TEMP:  87; 6HR PCP: TRACE;

BEAVER ISLAND  CLOUDY    71  70  95 SW12      29.78S
6HR MIN TEMP:  71; 6HR MAX TEMP:  74;

BELLAIRE       CLOUDY    80  74  83 CALM      29.80S
6HR MIN TEMP:  79; 6HR MAX TEMP:  84;

CADILLAC       LGT RAIN  78  76  93 W5        29.84S
CHARLEVOIX     CLOUDY    76  74  95 SW3       29.82S FOG
FRANKFORT      CLOUDY    76  71  85 SW6       29.80S
GAYLORD        CLOUDY    77  71  82 S6        29.84F
6HR MIN TEMP:  76; 6HR MAX TEMP:  84; 6HR PCP: TRACE;

GRAYLING       CLOUDY    81  75  82 S3        29.84F
6HR MIN TEMP:  76; 6HR MAX TEMP:  83;

HARBOR SPRINGS DRIZZLE   73  73  99 CALM      29.79F
HOUGHTON LAKE  CLOUDY    80  74  81 S5        29.85S
6HR MIN TEMP:  73; 6HR MAX TEMP:  82; 6HR PCP:  0.09;

MANISTEE       MOSUNNY   82  76  81 SW7       29.79F
OSCODA         MOSUNNY   79  69  71 S12       29.83F
6HR MIN TEMP:  78; 6HR MAX TEMP:  83;

PELLSTON       LGT RAIN  75  73  93 CALM      29.80S FOG
6HR MIN TEMP:  75; 6HR MAX TEMP:  80; 6HR PCP:  0.02;

ROGERS CITY    CLOUDY    76  70  84 E3        29.82S
TRAVERSE CITY  CLOUDY    83  76  79 SW5       29.78S HX  91
6HR MIN TEMP:  81; 6HR MAX TEMP:  86; 6HR PCP: TRACE;

$$
MIZ007>008-015-250100-
EASTERN UPPER MICHIGAN

CITY           SKY/WX    TMP DP  RH WIND       PRES   REMARKS
KINROSS        LGT RAIN  71  71 100 S5        29.79S FOG
6HR MIN TEMP:  71; 6HR MAX TEMP:  73; 6HR PCP: TRACE;

MACKINAC ISLAN LGT RAIN  71  71 100 S6        29.79F
6HR MIN TEMP:  69; 6HR MAX TEMP:  73; 6HR PCP:  0.10;

NEWBERRY       CLOUDY    72  71  96 SW8       29.77S FOG
6HR MIN TEMP:  71; 6HR MAX TEMP:  73;

S. S. MARIE    CLOUDY    73  71  93 SW5       29.77F
6HR MIN TEMP:  71; 6HR MAX TEMP:  74; 6HR PCP:  0.01;

$$
MIZ004>006-011>014-085-250100-
CENTRAL UPPER MICHIGAN

CITY           SKY/WX    TMP DP  RH WIND       PRES   REMARKS
MANISTIQUE     CLOUDY    70  69  97 S9G16     29.76S FOG
6HR MIN TEMP:  69; 6HR MAX TEMP:  71;

ESCANABA         N/A    N/A N/A N/A MISG        N/A
SAWYER-GWINN   PTSUNNY   75  66  73 NE6       29.79R
$$
MIZ001>003-009>011-084-250100-
WESTERN UPPER MICHIGAN

CITY           SKY/WX    TMP DP  RH WIND       PRES   REMARKS
IRON MOUNTAIN  SUNNY     82  60  47 W10       29.80R
6HR MIN TEMP:  79; 6HR MAX TEMP:  86;

HOUGHTON       SUNNY     76  60  57 W20G28    29.78R
6HR MIN TEMP:  74; 6HR MAX TEMP:  80;

COPPER HARBOR    N/A     79  60  52 NW9       29.73R
6HR MIN TEMP:  72; 6HR MAX TEMP:  81;

IRONWOOD       SUNNY     77  61  57 W9G22     29.83R
6HR MIN TEMP:  77; 6HR MAX TEMP:  81;

$$

ABBREVIATIONS USED IN REMARKS
   TC - TEMPERATURE IN CELSIUS
  WCI - WIND CHILL INDEX
   HX - HEAT INDEX
  VSB - VISIBILITY




USA.gov is the U.S. government's official web portal to all federal, state and local government web resources and services.